Tracking 35331 objects as of 15-Sep-2026
HD Live streaming from Space Station
objects crossing your sky now

FLOCK 4G 24

Track FLOCK 4G 24 now!
10-day predictions
FLOCK 4G 24 is classified as:


NORAD ID: 62637
Int'l Code: 2025-009AE
Launch date: January 14, 2025
Source: United States (US)
Launch site: AIR FORCE WESTERN TEST RANGE (AFWTR)

Uplink (MHz):
Downlink (MHz): 400.650/400.850
Beacon (MHz): 2260.000
Mode: 4k8/9k6 FSK
Call sign:
Status: Inactive

Your satellite tracking list
Your tracking list is empty




NASA's NSSDC Master Catalog

Two Line Element Set (TLE):
1 62637U 25009AE  26258.48839864  .00010547  00000-0  34998-3 0  9996
2 62637  97.3970 340.5007 0002298   0.5422 359.5822 15.31422085 92741
Source of the keplerian elements: AFSPC